Current Weather Conditions by Major Hwy


I-84 West to East [Columbia River Gorge] 600 AM PST SAT JAN 16 2021 ELEVA CITY SKY/WX TMP DP RH WIND PRES REMARKS 10 ASTORIA, OR MOCLDY 43 41 93 E7 30.37F 20 KELSO CLOUDY 42 40 92 E3 30.42S 40 PORTLAND, OR CLOUDY 43 39 86 E7 30.41S 30 TROUTDALE, OR CLOUDY 42 39 89 E8 30.41S 240 THE DALLES, OR CLOUDY 38 35 89 CALM 30.44S 620 HERMISTON, OR FOG 31 30 96 SE5 30.42F VSB 1/4 1,480 PENDLETON, OR MOCLDY 33 31 92 E6 30.40F 2,710 LA GRANDE PTCLDY 24 21 88 N3 30.44R 3,370 BAKER CITY CLEAR 21 17 84 N3 30.42R 2,190 ONTARIO CLEAR 25 20 81 CALM 30.48R
I-90 West to East 600 AM PST SAT JAN 16 2021 ELEVA CITY SKY/WX TMP DP RH WIND PRES REMARKS 30 SEATAC AIRPORT MOCLDY 39 38 96 CALM 30.41S 1,730 ELLENSBURG CLOUDY 30 25 81 CALM 30.39S 1,200 MOSES LAKE FOG 31 28 89 N8 30.45S VSB 3/4 1,880 SPOKANE GEIGER CLOUDY 32 28 85 NE3 30.41S
I-82 North West to South East 600 AM PST SAT JAN 16 2021 ELEVA CITY SKY/WX TMP DP RH WIND PRES REMARKS 1,730 ELLENSBURG CLOUDY 30 25 81 CALM 30.39S 1,050 YAKIMA TC CLOUDY 28 26 92 S3 30.39R 720 360 PASCO FOG 30 29 96 CALM 30.46S VSB 1/4 620 HERMISTON, OR FOG 31 30 96 SE5 30.42F VSB 1/4
Hwy97 North to South 600 AM PST SAT JAN 16 2021 ELEVA CITY SKY/WX TMP DP RH WIND PRES REMARKS 850 OMAK CLOUDY 25 21 85 CALM 30.47S 630 WENATCHEE CLOUDY 28 26 92 N5 30.44R 1,730 ELLENSBURG CLOUDY 30 25 81 CALM 30.39S 1,050 YAKIMA TC CLOUDY 28 26 92 S3 30.39R 1,640 GOLDENDALE* CLOUDY 38 35 89 CALM 30.44S *From Dallesport Airport Elev 240 3,080 REDMOND PTCLDY 24 22 91 SE3 30.36S 4,100 KLAMATH FALLS FOG 33 32 96 CALM 30.37S VSB 1/4
I-5 North to South 600 AM PST SAT JAN 16 2021 ELEVA CITY SKY/WX TMP DP RH WIND PRES REMARKS 150 BELLINGHAM MOCLDY 37 36 96 N3 30.43S 100 ARLINGTON MOCLDY 34 34 100 CALM 30.43S 610 EVERETT MOCLDY 41 35 79 VRB6 30.41S 30 SEATAC AIRPORT MOCLDY 39 38 96 CALM 30.41S 200 OLYMPIA FOG 39 38 96 CALM 30.41F VSB 1/2 20 KELSO CLOUDY 42 40 92 E3 30.42S 100 VANCOUVER CLOUDY 44 38 79 CALM 30.41S 40 PORTLAND CLOUDY 43 39 86 E7 30.41S 200 SALEM CLOUDY 45 40 82 N6 30.39S 360 EUGENE N/A 46 44 93 N8 30.39S FOG 510 ROSEBURG MOCLDY 49 45 86 N3 30.35R 1,300 MEDFORD CLOUDY 46 42 86 CALM 30.37S
Data from:
http://www.wrh.noaa.gov/sew/get.php?pil=RWR&sid=OR&version=0&format=printer
http://www.wrh.noaa.gov/sew/get.php?pil=RWR&sid=WA&version=0&format=printer

Current Observations

Washington State Current Weather Observations   …  Oregon State Current Weather Observation



48 Hour Forecast

Seattle  …  Vancouver  …  Portland
————————————————————————————————————————
Bend  …  Spokane  …  Richland  …  Pendleton  …  Blue Mountains I-84  …  Yakima
————————————————————————————————————————
Goldendale, Washington Higher Elevations  …  Dallesport Airport - Goldendale  …  Bingen - White Salmon - Hood River  …  Index


Top of Page